Flag for South Korea Weather past 2 weeks in Daegu, South Korea

Now
41 °F

Drizzle. Fog.


Feels Like: 41 °F
Forecast: 24 / 39 °F
Wind: 1 mph from North

Location: Taegu Ab

Current Time: Jan 26, 2015 at 10:20:47 AM

Latest Report: Jan 26, 2015 at 9:00 AM


Visibility: 0 mi

Pressure: 30.07 "Hg

Humidity: 100%

Dew point: 41 °F

Location of DaeguLocation

Historic Weather in Daegu — Graph

°F

Daegu temperature yesterday

Maximum temperature yesterday: 43 °F (at 4:00 PM)
Minimum temperature yesterday: 28 °F (at 2:00 AM)
Average temperature yesterday: 36 °F

Past Weeks' High & Low Weather Summary

 TemperatureHumidityPressure
High50 °F (Jan 15, 3:00 PM)100% (Jan 21, 9:00 PM)30.60 "Hg (Jan 21, 9:00 PM)
Low19 °F (Jan 18, 6:00 AM)18% (Jan 17, 5:00 PM)29.98 "Hg (Jan 16, 3:00 PM)
Average37 °F62%30.23 "Hg
* Reported Jan 11 9:00 AM — Jan 26 9:00 AM, Daegu, Weather by CustomWeather, © 2014

Note: Actual official high and low records may vary slightly from our data, if they occured in-between our weather recording intervals... More about our weather records

Advertising

Daegu weather history for previous 24 hours

 ConditionsComfort  
Time TempWeatherWind HumidityBarometerVisibility
9:00 AM
Jan 26
41 °FDrizzle. Fog.1 mph100%30.07 "Hg1 mi
8:00 AM41 °FLight rain. Fog.3 mph93%30.07 "Hg1 mi
7:00 AM41 °FDrizzle. Fog.1 mph100%30.07 "Hg1 mi
6:01 AM41 °FLight rain. Fog.1 mph93%30.07 "Hg1 mi
5:00 AM41 °FLight rain. Fog.1 mph93%30.08 "Hg1 mi
4:00 AM39 °FLight rain. Fog.1 mph100%30.10 "Hg1 mi
3:00 AM39 °FLight rain. Fog.1 mph100%30.11 "Hg1 mi
2:00 AM39 °FLight rain. Fog.1 mph100%30.13 "Hg1 mi
1:00 AM39 °FLight rain. Fog.2 mph93%30.15 "Hg1 mi
12:00 AM39 °FLight rain. Fog.1 mph100%30.19 "Hg1 mi
11:00 PM
Jan 25
41 °FLight rain. Fog.1 mph87%30.18 "Hg2 mi
10:00 PM39 °FLight rain. Fog.1 mph93%30.18 "Hg3 mi
9:00 PM41 °FLight rain. Fog.1 mph81%30.18 "Hg3 mi
8:00 PM41 °FPassing clouds.1 mph76%30.21 "Hg4 mi
7:00 PM41 °FPartly cloudy.1 mph76%30.21 "Hg4 mi
6:00 PM43 °FPassing clouds.1 mph61%30.21 "Hg4 mi
5:00 PM43 °FMostly cloudy.1 mph66%30.21 "Hg5 mi
4:00 PM43 °FPartly sunny.2 mph61%30.21 "Hg5 mi
3:00 PM41 °FBroken clouds.1 mph61%30.24 "Hg5 mi
2:00 PM41 °FBroken clouds.1 mph61%30.27 "Hg5 mi
1:00 PM37 °FClear.1 mph70%30.30 "Hg5 mi
12:00 PM36 °FClear.1 mph75%30.33 "Hg5 mi
11:00 AM34 °FClear.1 mph81%30.33 "Hg5 mi
10:00 AM32 °FClear.1 mph80%30.36 "Hg5 mi
Weather by CustomWeather, © 2014

See weather overviewHow to use our weather pages